Theta_e
311 311 310 311 312 313 313 314 314 315 314 314 314 314 314 313 312 317 321 323 326 332 343 346 348 355 355 354 353 351 366 365 359 355 353 348 348 344 342 345 344 343 342 341 342
311 311 310 310 311 313 313 313 313 314 315 313 313 313 312 311 314 320 324 328 326 328 342 352 356 352 356 360 360 355 361 359 354 351 350 348 347 344 344 345 344 343 341 341 341
310 311 310 310 311 312 313 313 313 314 315 313 312 312 311 311 328 333 330 325 326 328 343 346 348 357 359 358 363 361 357 353 353 348 347 347 347 344 344 346 344 343 342 340 340
309 310 310 310 310 311 312 313 314 314 315 313 311 310 310 318 339 333 329 325 326 337 347 345 346 356 364 358 354 356 354 350 349 349 348 348 345 346 345 345 343 341 340 340 339
308 309 310 310 310 311 311 312 313 314 315 314 311 310 314 331 332 332 326 325 328 342 348 346 349 358 362 354 347 348 349 347 347 347 347 347 350 349 346 345 343 341 341 340 339
307 308 309 310 310 311 311 312 313 314 315 314 311 310 328 329 336 333 328 328 337 342 350 353 357 354 355 350 349 347 345 345 345 348 348 349 349 346 346 344 343 342 340 339 339
307 308 308 309 310 310 311 312 314 315 315 313 311 313 325 326 337 332 336 336 342 346 351 352 350 349 348 351 348 347 348 345 345 346 346 345 349 350 346 344 343 342 340 340 338
307 308 308 309 310 310 311 313 314 315 314 313 311 319 326 331 335 337 340 343 345 348 349 349 349 347 349 347 350 350 348 349 347 347 346 347 351 348 345 343 343 342 342 341 340
307 308 308 309 310 310 311 314 315 314 313 312 317 320 325 328 328 340 342 344 346 348 348 349 348 348 349 353 354 351 354 351 351 347 348 349 354 348 344 343 344 343 343 342 340
308 308 309 309 310 310 311 314 316 315 317 318 322 323 325 329 328 332 339 344 345 346 348 349 348 351 350 351 355 354 353 352 353 348 349 351 351 348 344 344 344 343 343 342 341
308 309 309 309 310 311 311 324 322 324 320 322 322 326 331 331 331 333 338 343 344 343 344 347 350 352 352 350 351 351 349 352 351 350 349 349 351 350 347 349 346 344 343 343 342
309 309 309 310 311 311 310 321 328 325 325 323 323 322 326 328 332 333 337 341 344 343 344 347 350 348 349 346 348 348 348 351 353 352 349 347 352 348 348 351 350 346 345 344 342
308 309 310 311 312 310 311 316 321 323 325 327 326 324 323 325 330 332 335 338 338 340 344 343 346 347 346 346 347 344 346 351 352 351 348 349 354 353 349 346 344 346 345 345 344
308 310 311 312 318 319 322 322 322 323 325 327 324 326 324 326 329 332 335 336 336 337 337 337 337 345 346 346 344 344 343 342 346 349 351 348 357 353 351 349 349 346 344 346 344
309 310 311 316 313 318 326 325 326 325 332 332 326 327 324 324 327 327 330 333 335 335 334 334 335 336 344 346 344 343 342 338 337 334 347 352 353 354 352 351 349 346 343 344 345
311 311 312 322 320 316 320 324 326 329 334 330 328 326 322 322 324 326 327 330 332 333 333 333 333 333 335 343 343 342 340 337 336 333 341 351 351 353 351 348 347 348 347 345 346
310 311 313 315 323 322 323 321 329 331 332 331 328 326 323 322 322 324 325 330 330 330 332 332 333 332 333 337 339 341 337 337 342 337 345 349 350 345 348 345 346 343 348 349 345
310 310 313 314 314 318 322 327 333 332 329 331 329 329 327 324 324 324 324 329 329 328 329 331 334 332 333 335 337 335 335 339 347 353 353 343 347 353 348 346 345 345 351 350 344
311 321 324 323 316 317 324 330 332 333 333 332 333 331 328 327 325 324 323 325 327 326 327 330 331 331 332 333 334 336 337 334 336 343 341 345 354 353 351 351 348 346 349 346 342
317 321 323 327 316 322 325 328 329 329 330 330 336 335 330 327 324 323 323 325 327 326 328 329 330 330 331 333 332 334 335 336 334 341 342 361 358 354 355 350 352 350 349 347 344
320 327 327 325 318 321 327 328 329 329 329 330 332 334 336 337 328 324 326 327 327 327 325 327 327 329 330 328 331 329 331 332 329 331 333 362 357 351 346 351 352 351 347 344 342
322 331 326 320 322 321 322 326 324 327 328 329 332 332 334 336 336 336 334 329 328 327 327 326 324 327 328 328 330 329 328 329 330 332 331 337 350 343 341 344 345 345 349 346 343
325 329 329 325 326 324 323 322 324 326 327 329 332 332 331 333 336 337 337 333 330 328 332 331 328 324 326 326 328 329 329 329 327 325 327 343 345 342 344 348 346 353 362 343 343
325 337 330 329 328 326 325 324 324 325 325 326 329 332 333 335 334 337 336 335 330 331 335 333 328 330 332 331 334 333 333 333 332 327 330 346 346 348 347 345 347 352 365 356 338
328 331 331 335 328 327 326 324 324 326 327 327 331 332 332 333 335 335 335 335 335 338 333 328 329 332 331 332 333 332 334 335 338 335 335 343 344 344 341 341 342 346 365 359 355
328 326 326 329 333 333 324 325 325 324 326 329 334 332 330 331 333 334 333 335 338 338 336 333 333 337 337 336 334 335 335 338 334 335 339 356 356 343 339 335 337 345 360 355 351
325 323 325 328 328 329 331 331 329 325 327 328 328 332 332 334 333 331 330 329 331 337 342 340 341 342 339 336 336 338 338 340 341 340 340 355 354 346 341 338 345 359 356 351 347
Wind_Speed
11 10 8 8 8 7 7 6 8 9 9 9 9 9 11 12 13 10 6 9 7 3 8 5 10 12 6 7 3 4 2 4 4 6 8 9 16 13 10 20 16 5 20 21 30
13 11 9 9 8 8 8 7 7 8 9 10 10 10 10 13 14 12 15 10 5 3 8 8 3 22 5 5 4 2 3 8 4 3 13 15 15 12 8 8 18 20 22 29 29
14 12 11 10 9 9 9 9 8 7 8 9 11 10 10 12 4 5 9 16 5 5 7 13 19 3 8 10 11 7 5 4 6 8 13 12 14 12 10 18 20 24 22 20 24
15 14 12 11 10 9 10 10 9 9 8 8 10 10 11 4 4 3 12 13 8 6 5 17 10 7 4 5 10 6 17 5 8 6 13 12 10 9 12 17 22 19 19 17 15
17 15 13 11 10 10 10 10 10 9 9 8 9 9 4 3 8 5 12 13 14 14 17 16 12 7 6 7 5 5 10 6 6 9 9 6 13 11 17 23 21 19 16 14 13
18 16 15 12 10 10 10 10 10 9 8 8 8 9 1 5 6 9 13 13 12 19 18 15 16 13 9 6 4 11 4 8 5 8 11 15 7 11 20 21 21 18 13 12 11
19 17 16 14 11 10 10 10 9 9 8 8 7 6 5 12 8 11 12 14 15 16 14 22 15 7 8 7 2 9 7 7 8 5 4 8 8 7 13 19 19 16 13 13 11
19 18 16 15 13 10 10 10 9 8 7 6 6 1 7 6 13 10 15 12 13 18 25 24 20 7 2 7 6 5 5 4 6 10 4 9 7 4 10 19 17 16 13 12 10
21 19 17 15 15 11 9 10 9 7 6 5 4 3 8 5 11 17 18 14 20 23 24 18 11 4 4 3 4 2 4 5 8 7 3 6 5 8 8 18 18 17 13 10 9
22 20 18 16 15 13 9 9 6 6 5 4 9 6 8 8 10 18 17 18 13 11 9 10 8 5 1 4 4 6 5 4 5 2 8 7 14 6 11 9 18 17 15 11 9
23 21 19 17 16 13 8 4 2 1 6 10 9 7 11 18 17 14 16 14 12 8 8 10 5 6 12 12 13 12 9 11 5 4 3 7 3 23 13 15 1 10 16 15 11
24 22 20 17 17 12 6 4 11 12 9 19 20 16 29 22 7 10 17 8 7 8 11 8 8 10 13 10 12 20 6 3 6 5 6 6 9 7 9 13 19 11 14 17 14
25 24 22 19 16 10 12 18 20 23 5 16 14 10 17 15 8 10 11 9 9 10 12 10 14 7 6 11 13 12 5 5 7 12 6 5 3 1 1 6 16 12 18 18 19
26 25 24 22 5 5 9 10 14 17 5 7 9 12 13 9 8 16 21 9 7 12 15 10 14 9 12 9 10 2 1 8 9 11 5 2 4 4 2 8 7 10 17 15 19
27 26 23 16 14 5 12 15 9 10 4 6 11 7 11 13 5 12 22 9 11 12 8 13 12 13 10 13 4 7 6 4 8 6 6 4 5 6 10 11 21 18 17 7 18
28 27 24 5 10 16 18 15 9 1 7 4 10 11 14 13 14 17 9 8 8 11 15 16 16 12 12 6 2 6 7 9 7 5 1 6 4 5 4 7 5 7 3 8 18
30 26 23 12 6 5 10 10 1 4 7 9 9 10 11 11 14 14 14 13 8 4 7 13 18 16 16 8 5 7 5 5 4 4 3 12 8 5 9 6 7 9 12 16 15
30 23 19 23 18 10 12 1 6 10 12 6 11 13 11 9 13 10 14 11 9 9 8 7 12 14 16 11 10 8 6 5 4 3 5 12 2 3 10 7 10 14 10 12 16
29 10 7 18 16 11 1 4 6 6 8 16 4 10 7 10 12 15 13 9 12 13 11 5 15 20 18 17 11 9 7 11 5 5 2 5 1 7 7 6 7 16 15 22 33
16 7 15 8 15 8 2 7 9 9 18 19 8 5 9 13 11 10 11 14 15 11 15 10 9 16 17 4 4 9 6 3 4 2 4 3 2 4 1 3 23 24 20 26 27
4 3 4 23 19 2 5 7 9 16 18 12 10 11 14 7 8 13 14 15 17 14 10 10 8 11 7 7 6 5 5 5 3 4 4 5 5 8 13 18 24 20 15 19 16
7 3 23 27 3 4 7 6 10 22 23 21 4 8 13 11 10 7 8 10 10 12 8 9 5 3 11 14 9 9 9 8 5 8 6 3 5 18 18 19 9 17 5 20 20
4 4 13 16 4 7 8 16 20 21 21 20 8 7 10 9 7 7 11 11 3 6 5 3 3 3 10 10 9 6 9 6 4 2 7 5 4 13 4 12 14 33 24 18 17
3 3 2 3 7 9 10 11 14 19 20 20 15 5 8 8 8 6 10 8 4 4 4 8 2 6 6 7 3 4 8 9 4 3 5 2 8 8 8 16 28 26 22 24 19
3 3 4 2 6 12 12 11 17 17 14 15 6 4 9 7 9 9 12 15 6 6 4 4 6 6 9 11 15 9 11 8 2 7 4 11 11 11 18 21 21 24 15 19 20
3 4 6 7 11 13 13 11 16 19 11 10 6 10 6 7 7 9 8 6 5 6 7 8 5 5 7 10 14 15 11 8 5 6 11 8 3 11 8 18 14 13 12 15 12
10 10 3 7 9 9 7 9 12 13 11 13 11 4 8 4 7 8 10 10 9 4 4 2 4 6 7 9 11 8 8 6 4 2 2 3 7 11 5 10 8 9 14 15 14
Wind_Direction
3 355 350 340 334 326 323 324 319 315 313 310 312 313 313 313 308 301 255 249 214 181 178 178 222 230 298 63 151 139 120 272 265 163 139 118 87 92 113 131 144 142 139 141 144
2 355 346 338 331 322 321 319 319 314 312 313 316 317 326 322 316 250 236 222 241 179 190 202 5 71 346 147 286 59 171 205 253 222 130 112 119 140 127 106 120 124 127 141 144
2 355 345 337 329 322 319 318 319 316 309 312 315 322 331 334 282 221 200 215 235 218 211 35 18 66 203 184 181 211 233 217 247 260 118 131 150 130 139 120 128 135 143 147 153
2 354 344 339 329 319 316 315 316 317 312 314 318 328 326 339 26 130 166 176 160 167 39 20 12 331 257 207 205 233 248 221 236 173 137 153 147 151 141 138 133 137 147 150 163
360 355 347 337 325 316 312 311 311 314 311 313 320 328 336 225 252 183 167 167 161 171 175 200 197 228 261 288 305 260 161 150 146 145 123 159 130 120 125 129 131 139 153 159 172
357 352 352 340 326 312 309 310 307 308 306 308 321 331 272 254 192 176 173 175 185 186 209 181 201 215 246 282 321 351 148 136 199 63 152 106 164 107 127 131 137 146 160 171 180
355 351 349 342 327 312 304 304 301 300 298 304 322 341 264 250 205 178 181 195 191 214 241 256 286 315 335 313 299 42 356 2 124 143 172 115 36 104 138 136 142 150 169 186 186
354 351 346 342 332 312 301 296 296 291 289 297 307 356 252 305 202 174 190 213 224 242 257 277 292 313 329 297 328 76 54 32 296 14 145 112 214 148 170 143 151 159 178 188 183
354 351 345 340 332 316 298 293 292 286 285 291 313 210 268 218 198 205 195 220 224 239 252 262 267 266 354 25 340 251 181 193 274 273 305 313 207 208 187 154 162 166 177 181 179
354 349 344 338 330 315 301 295 279 287 291 288 266 316 258 226 208 221 206 223 253 256 259 240 238 244 50 94 240 226 187 120 216 311 128 323 283 188 188 169 170 167 171 175 179
350 347 344 336 329 314 309 326 317 275 242 206 198 231 292 221 217 203 200 220 251 284 278 278 279 195 218 208 243 259 208 187 207 2 97 202 263 2 330 28 302 176 172 173 178
349 345 340 332 323 300 283 247 259 325 273 222 248 242 261 276 173 202 205 205 235 251 266 275 253 256 210 249 273 294 80 181 170 187 164 239 104 78 42 117 266 297 309 181 171
345 342 335 330 317 284 235 240 265 309 297 279 236 224 243 248 204 213 183 207 239 256 256 255 262 182 239 271 276 293 144 209 180 191 345 131 105 308 180 160 253 282 298 207 178
341 339 336 332 314 317 247 270 263 264 296 261 196 226 240 238 227 241 192 186 222 247 271 271 287 221 223 258 277 38 278 286 218 173 188 121 230 313 223 221 253 248 296 212 178
338 336 332 327 301 280 304 347 265 239 290 161 166 197 191 215 211 232 252 204 220 255 252 261 269 288 242 258 220 247 286 303 311 307 108 350 98 256 168 225 233 242 227 287 186
333 330 325 350 287 269 303 332 303 270 248 171 154 203 180 213 233 249 224 220 197 233 269 276 287 292 281 279 310 306 293 305 278 245 296 181 119 272 242 214 242 235 181 315 187
325 319 304 261 226 329 327 267 239 229 297 156 163 168 181 197 220 229 251 215 204 217 268 277 271 273 273 271 270 253 290 306 341 17 271 140 210 281 223 288 284 274 24 334 194
322 311 282 259 256 286 303 312 244 253 248 289 165 174 181 209 204 218 254 214 215 212 259 259 280 249 249 211 206 222 222 162 261 156 187 288 272 293 357 21 337 339 359 7 312
326 317 263 268 225 227 276 214 220 224 264 341 305 164 180 197 215 199 217 228 217 205 212 247 278 289 301 225 199 237 244 233 243 201 158 175 311 144 349 335 321 309 161 163 238
326 297 246 218 175 180 199 246 243 264 304 320 324 299 191 199 191 198 207 220 230 223 197 228 249 272 285 306 302 177 222 5 333 253 290 31 285 211 127 119 336 296 201 197 227
311 263 179 160 144 169 220 239 263 271 269 284 322 316 325 315 235 208 214 224 214 224 212 206 203 270 325 297 220 313 309 272 181 183 213 171 248 206 180 149 198 257 249 175 155
306 272 145 144 150 208 236 250 271 282 293 293 246 291 290 307 321 333 259 222 214 193 196 226 201 250 233 260 257 202 231 224 146 275 235 153 255 178 198 173 220 338 284 91 90
294 274 165 181 219 236 246 238 249 268 274 281 270 244 273 292 317 328 328 307 344 151 130 62 319 281 317 321 307 208 240 246 260 321 274 141 245 193 58 43 348 331 89 90 106
277 273 188 200 250 252 268 277 264 241 257 276 285 273 330 317 314 312 309 310 150 103 137 94 193 200 225 228 307 335 293 297 70 326 315 179 122 128 106 74 30 320 106 115 119
227 284 19 263 248 238 257 276 288 296 262 243 258 299 291 312 324 315 310 320 300 168 157 133 215 256 280 297 297 269 247 236 58 258 306 202 145 167 141 123 122 243 128 118 120
334 1 329 293 295 310 209 242 260 282 293 312 196 212 261 276 263 275 334 343 180 327 337 0 271 240 278 292 295 297 303 210 231 320 21 112 101 184 176 143 172 212 94 95 89
353 345 266 292 305 314 303 286 278 252 282 288 299 346 225 49 5 325 306 292 282 179 150 330 80 18 272 267 287 311 288 141 137 116 212 212 234 154 154 162 206 146 117 109 108